FW3734 Weather Reports


Display with metric or nautical units.
time (UTC)temp
F
wind
direction
speed
MPH
gust
MPH
rain 1hr
in
rain 24hr
in
rain mn
in
humidity
%
barometer
mb
20260505053032 70 218 0.0 6.0 0.00 0.11 0.00 60 1003.9
20260505051528 70 197 0.0 6.0 0.00 0.11 0.00 60 1003.6
20260505041526 71 214 0.0 8.0 0.00 0.11 0.11 59 1003.3
20260505040025 71 215 0.0 7.0 0.00 0.11 0.11 58 1003.7
20260505034524 72 197 0.0 3.0 0.00 0.11 0.11 57 1003.7
20260505033023 72 187 0.0 8.0 0.00 0.11 0.11 57 1003.8
20260505031522 73 196 0.0 2.0 0.00 0.11 0.11 55 1003.8
20260505030022 73 208 0.0 2.0 0.00 0.11 0.11 55 1003.7
20260505024521 73 198 0.0 2.0 0.00 0.11 0.11 55 1003.5
20260505023021 73 213 0.0 3.0 0.00 0.11 0.11 55 1003.2
20260505021521 73 209 0.0 0.0 0.00 0.11 0.11 55 1002.9
20260505020030 74 201 0.0 0.0 0.00 0.11 0.11 55 1002.6
20260505014531 74 201 0.0 0.0 0.00 0.11 0.11 54 1002.2
20260505013026 74 217 0.0 0.0 0.00 0.11 0.11 53 1002.2
20260505011524 75 207 0.0 1.0 0.00 0.11 0.11 52 1002.2
20260505010018 75 235 0.0 2.0 0.00 0.11 0.11 52 1002.0
20260505004518 76 153 0.0 2.0 0.00 0.11 0.11 51 1001.7
20260505003024 77 213 0.0 1.0 0.00 0.11 0.11 51 1001.6
20260505001515 78 214 0.0 0.0 0.00 0.11 0.11 50 1001.6
20260505000016 78 201 0.0 5.0 0.00 0.11 0.11 50 1001.6
20260504234516 79 228 0.0 5.0 0.00 0.11 0.11 49 1001.4
20260504233016 79 234 0.0 9.0 0.00 0.11 0.11 49 1001.7
20260504231510 79 218 0.0 4.0 0.00 0.11 0.11 49 1001.7
20260504230008 78 204 0.0 1.0 0.00 0.11 0.11 57 1002.0
20260504224513 77 190 0.0 0.0 0.00 0.11 0.11 59 1002.3
20260504223002 77 245 0.0 4.0 0.00 0.11 0.11 57 1002.4
20260504221604 77 124 0.0 0.0 0.00 0.11 0.11 56 1002.4
20260504214556 77 193 0.0 5.0 0.00 0.11 0.11 56 1002.5
20260504213055 76 177 0.0 7.0 0.00 0.11 0.11 58 1002.5
20260504211631 75 200 0.0 3.0 0.00 0.11 0.11 62 1002.6
20260504210049 75 184 0.0 1.0 0.00 0.11 0.11 66 1002.8
20260504204542 73 202 0.0 4.0 0.00 0.11 0.11 69 1003.0
20260504203036 71 158 2.0 11.0 0.00 0.11 0.11 72 1003.2
20260504201532 69 158 0.0 6.0 0.00 0.11 0.11 80 1003.4
20260504200031 67 136 0.0 6.0 0.00 0.11 0.11 84 1003.3
20260504194528 66 136 0.0 0.0 0.01 0.11 0.11 87 1003.5
20260504193027 64 149 0.0 0.0 0.02 0.11 0.11 90 1003.8
20260504191527 62 142 3.0 11.0 0.08 0.11 0.11 89 1003.4
20260504190023 62 149 0.0 0.0 0.09 0.11 0.11 88 1004.7
20260504184535 62 192 0.0 0.0 0.07 0.09 0.09 86 1005.3
20260504183021 62 145 4.0 8.0 0.07 0.09 0.09 83 1004.2
20260504181517 63 124 0.0 0.0 0.01 0.03 0.03 80 1005.4
20260504180016 63 50 0.0 3.0 0.01 0.02 0.02 79 1005.6
20260504174516 62 221 0.0 0.0 0.02 0.02 0.02 81 1005.2
20260504173015 62 221 0.0 0.0 0.02 0.02 0.02 81 1005.2
20260504171514 63 199 0.0 1.0 0.02 0.02 0.02 78 1005.4
20260504081523 61 132 1.0 3.0 0.00 0.00 0.00 69 1008.1